GFSFLT1_prec_cloud_006.txt.gz
Cloud_Cover
99 0 1 0 0 0 0 0 0 0 0 0 0 0 0 0 0 0 0 0 0 0 0 0 0 0 1 5 5 5 5 64 5
100 99 5 0 0 0 0 0 0 0 0 0 0 0 0 0 0 0 0 0 0 0 0 0 0 0 0 5 45 8 2 5 85
100 77 0 4 0 0 0 0 0 0 0 0 0 0 0 0 0 0 0 0 0 0 0 0 4 2 0 19 14 1 0 2 1
94 12 14 3 0 0 0 0 0 0 0 0 0 0 0 0 0 0 0 0 0 0 0 0 0 0 0 0 0 0 0 0 0
0 0 82 42 1 0 0 0 0 0 0 0 0 0 0 0 0 0 0 0 0 0 0 0 0 0 0 0 0 0 0 1 0
3 18 98 5 64 0 0 0 0 0 0 0 0 0 0 0 0 0 0 0 0 0 0 0 0 0 0 0 0 4 5 5 2
31 3 100 39 81 3 0 0 0 0 0 0 0 0 0 0 0 0 0 0 0 0 0 0 0 0 0 5 1 3 5 4 4
44 0 12 73 22 1 0 0 0 0 0 0 0 0 0 0 0 0 0 0 0 0 0 2 0 4 4 5 5 10 59 25 5
5 0 0 3 31 51 0 0 0 0 0 0 0 0 0 0 0 0 0 0 0 0 4 50 64 54 5 65 100 5 5 5 5
33 91 0 0 0 0 0 0 0 0 0 0 0 0 0 0 0 0 0 0 0 0 10 58 63 7 55 18 95 86 5 2 30
99 92 3 0 0 0 0 0 0 0 0 0 0 0 0 0 0 0 0 0 0 13 60 80 84 63 72 83 33 100 7 3 84
20 6 80 41 0 0 0 0 0 0 0 0 0 0 0 0 0 0 0 0 25 40 86 100 100 100 92 61 6 100 8 53 100
20 63 95 5 0 0 0 4 0 0 0 0 2 0 0 5 5 5 48 49 24 43 100 69 31 97 100 94 57 90 71 52 67
0 36 98 0 22 0 0 0 0 0 0 0 0 5 0 4 11 51 39 24 95 98 14 99 97 100 100 100 83 44 74 24 64
0 4 5 2 96 5 0 0 0 0 0 0 0 1 0 2 40 12 96 100 98 100 100 100 100 96 34 6 4 38 100 100 99
3 96 1 0 0 0 5 4 0 0 0 0 0 0 1 28 24 93 100 46 98 100 100 100 6 25 5 5 100 100 100 40 70
1 72 2 0 0 0 0 5 7 11 12 10 5 5 21 100 99 83 98 82 95 49 100 84 99 11 2 5 4 4 34 10 87
0 0 0 0 0 0 0 0 0 1 4 8 99 100 97 66 92 100 94 100 100 100 100 95 83 5 5 3 0 3 5 1 0
0 51 33 13 52 1 0 3 82 77 26 100 100 86 83 100 81 100 100 51 67 100 95 22 48 62 24 11 26 14 3 0 0
100 100 100 100 19 0 5 22 100 100 100 100 100 100 100 97 100 100 100 80 100 100 98 100 98 60 57 9 0 0 0 0 0

GFSFLT1_prec_cloud_009.txt.gz
Cloud_Cover
18 59 100 4 2 0 0 0 0 0 0 0 0 0 0 0 0 0 0 0 0 0 0 0 0 0 0 3 21 1 0 0 0
3 94 100 14 7 11 0 0 0 0 0 0 0 0 0 0 0 0 0 0 0 0 0 0 0 0 0 2 0 0 0 3 5
48 42 65 13 5 4 0 0 0 0 0 0 0 0 0 0 0 0 0 0 0 0 0 0 0 0 0 0 0 3 0 5 5
31 94 74 17 0 3 0 0 0 0 0 0 0 0 0 0 0 0 0 0 0 0 0 0 0 0 0 0 0 11 15 4 5
100 4 0 0 1 0 0 0 0 0 0 0 0 0 0 0 0 0 0 0 0 0 0 0 0 0 0 0 0 0 5 5 5
42 98 24 4 5 0 0 0 0 0 0 0 0 0 0 0 0 0 0 0 0 0 0 0 0 0 0 0 0 0 5 5 3
100 100 70 4 0 0 0 5 0 0 0 0 0 0 0 0 0 0 0 0 0 0 0 0 0 0 0 5 5 5 5 5 5
90 99 55 89 4 5 4 0 0 0 0 0 0 0 0 0 0 0 0 0 0 0 0 0 0 0 0 0 4 25 5 33 5
25 68 78 100 7 3 0 0 0 0 0 0 0 0 0 0 0 0 0 0 0 0 0 0 5 5 0 0 0 5 5 5 5
97 87 99 32 66 20 1 0 0 0 0 0 0 0 0 0 0 0 0 0 0 0 0 2 5 7 66 13 8 17 6 0 0
11 1 17 100 100 100 10 0 0 0 0 0 0 0 0 0 0 0 0 0 0 5 5 4 0 79 100 92 81 94 98 1 0
11 0 13 82 73 52 62 18 5 1 5 2 0 5 5 4 0 1 1 2 5 5 10 43 100 100 100 100 100 100 100 95 16
0 0 0 4 38 100 100 50 5 3 0 0 0 0 3 2 5 5 4 1 5 23 32 100 100 100 100 100 100 100 88 83 72
0 0 0 3 1 5 2 76 5 3 0 0 0 0 0 0 0 0 2 13 16 70 63 27 12 100 91 91 100 100 100 99 89
0 0 0 0 5 5 100 18 0 45 1 0 0 0 0 8 39 47 16 5 5 64 22 88 74 94 100 100 100 99 52 15 6
0 0 0 0 0 70 24 92 2 0 0 4 0 15 72 85 63 52 16 21 36 29 34 62 10 65 100 29 53 9 12 4 17
0 0 0 0 0 0 2 99 32 5 2 0 24 95 95 98 100 66 35 10 17 69 7 39 36 25 24 19 12 19 27 84 100
0 62 62 21 0 27 83 54 73 90 55 9 100 90 82 100 100 68 100 86 74 89 89 36 5 12 5 16 28 28 28 85 46
59 100 100 100 100 64 67 80 10 38 100 24 97 100 100 100 100 99 39 54 100 99 58 5 28 97 96 27 42 83 84 89 82
100 100 100 100 100 96 99 6 11 2 16 25 9 100 100 100 100 42 85 100 100 100 98 92 24 80 69 46 14 90 42 58 5

GFSFLT1_prec_cloud_015.txt.gz
Cloud_Cover
5 39 5 12 68 5 4 0 0 0 0 0 0 0 0 0 0 0 0 0 0 0 0 0 0 0 0 0 0 0 0 0 0
79 100 60 94 5 5 5 2 4 0 0 0 0 0 0 0 0 0 0 0 0 0 0 0 0 0 0 0 0 0 0 4 1
0 1 3 5 5 5 5 11 2 0 0 0 0 0 0 0 0 0 0 0 0 0 0 0 0 0 0 0 0 0 0 0 2
0 0 0 0 5 83 85 45 76 1 0 0 0 0 0 0 0 0 0 0 0 0 0 0 0 0 0 0 0 0 1 0 4
0 0 0 0 63 43 5 17 43 5 70 63 0 0 0 0 0 0 0 0 0 0 0 0 0 0 0 0 0 0 0 0 96
1 0 0 0 8 16 5 5 5 2 43 6 0 0 0 0 0 0 0 0 0 0 0 0 0 0 0 0 0 0 0 0 96
0 2 0 0 0 0 5 5 5 1 0 0 3 0 0 0 0 0 0 0 0 0 0 0 0 0 0 0 0 0 0 0 100
0 0 4 4 1 0 62 14 6 49 4 1 5 0 0 0 0 0 0 0 0 0 0 0 0 0 0 0 0 0 0 15 100
0 0 0 0 5 4 12 85 73 4 5 5 5 0 0 0 0 0 0 0 0 0 0 0 0 0 0 0 0 0 0 49 100
0 0 0 0 0 0 4 4 17 5 11 0 4 0 0 0 0 0 0 0 0 0 0 0 0 0 0 0 0 0 8 9 100
0 0 0 0 0 0 0 0 13 96 35 1 0 4 4 0 0 0 0 23 13 13 6 30 38 0 0 0 0 3 4 81 99
5 0 0 0 0 0 0 0 0 0 0 0 4 4 35 87 29 0 0 15 42 54 68 86 57 8 0 0 2 50 12 99 96
5 5 3 0 0 0 0 0 0 0 0 0 0 11 100 76 92 5 2 0 30 66 100 100 94 41 7 7 20 99 56 100 100
5 5 0 0 0 0 0 0 0 1 1 0 1 97 100 84 100 88 98 5 28 63 100 100 100 92 87 34 19 68 74 79 100
50 32 4 20 16 0 0 0 0 50 18 56 100 100 100 100 75 20 100 80 57 98 100 100 100 100 100 98 52 67 100 100 100
5 5 4 0 0 0 0 27 1 5 5 40 100 100 94 24 100 59 100 100 100 100 100 100 100 100 100 100 100 100 100 100 100
13 3 0 0 0 0 0 0 2 5 6 21 2 0 6 66 8 5 98 100 100 100 100 100 100 100 100 100 100 100 100 100 100
0 0 0 0 0 0 0 0 0 0 1 10 5 3 0 17 99 100 100 100 100 100 100 100 100 100 100 100 100 100 100 100 100
3 2 0 0 0 0 58 93 100 100 85 2 31 0 5 83 98 100 100 100 100 100 100 100 100 100 100 100 100 100 100 100 100
21 27 48 8 2 11 100 100 100 100 100 100 98 99 100 100 100 100 100 100 100 100 100 100 100 100 100 100 100 100 100 100 100

GFSFLT1_prec_cloud_021.txt.gz
Cloud_Cover
1 0 0 0 0 0 0 0 0 0 0 0 0 0 0 0 0 0 0 0 0 0 0 0 0 0 0 0 0 0 0 0 0
0 0 0 0 0 0 0 0 0 0 0 0 0 0 0 0 0 0 0 0 0 0 0 0 0 0 0 0 0 0 0 0 0
1 0 0 4 5 5 5 5 5 1 0 0 0 0 0 0 0 0 0 0 0 0 0 0 0 0 0 0 0 0 0 0 0
5 4 2 4 5 24 90 97 5 4 0 1 0 0 0 0 0 0 0 0 0 0 0 0 0 0 0 0 0 0 0 0 0
80 7 99 100 92 82 100 63 93 5 2 0 0 0 0 0 0 0 0 0 2 0 0 0 0 0 0 0 0 0 0 0 0
5 54 95 70 57 6 96 100 35 5 4 0 0 0 1 9 0 1 0 86 100 0 0 0 0 0 0 0 0 0 0 0 0
0 2 5 6 36 5 6 58 30 2 6 1 0 0 0 7 57 80 5 1 15 3 0 0 0 0 0 0 0 0 0 0 0
0 0 0 5 5 8 5 3 5 5 4 0 0 0 0 0 0 0 0 0 0 0 0 0 0 0 0 0 0 0 0 0 0
0 0 0 0 0 4 5 6 5 0 0 0 4 0 0 0 0 0 0 0 0 0 0 0 0 0 0 0 0 0 0 0 0
0 0 0 0 0 0 0 3 5 9 4 0 5 25 100 68 19 1 1 0 0 0 0 0 0 0 0 0 0 0 0 0 0
0 0 0 0 0 0 0 0 0 0 2 5 3 92 100 76 3 12 3 0 0 0 0 0 0 0 0 0 0 0 0 0 0
0 0 0 0 0 0 0 0 0 0 0 2 0 1 31 1 3 4 2 0 5 5 5 20 5 0 0 0 0 0 0 2 0
4 3 0 0 0 0 0 0 0 0 0 0 0 0 5 1 1 4 3 5 6 33 11 5 5 7 2 0 0 22 18 34 8
4 5 5 3 0 0 0 0 0 0 0 0 0 0 0 0 0 0 5 5 18 7 25 18 22 69 5 7 19 20 38 41 100
0 4 5 5 3 5 2 0 0 0 0 0 0 0 0 0 0 0 0 0 0 11 19 18 39 86 71 93 100 94 93 100 36
0 0 0 5 5 5 4 0 0 0 0 0 0 0 0 0 0 1 4 1 2 46 63 33 56 100 100 100 100 98 100 100 100
0 0 0 0 4 5 5 5 3 0 0 0 0 0 0 0 0 4 7 1 14 55 63 91 90 100 98 69 95 100 100 100 99
0 0 0 0 0 2 5 5 5 4 1 0 0 0 0 4 5 4 4 1 2 16 5 57 100 64 97 78 100 100 100 100 100
100 100 91 71 44 28 35 0 0 0 4 0 0 0 0 0 0 0 0 0 9 96 89 81 79 84 75 98 100 100 100 100 100
100 100 100 100 100 100 89 33 71 98 96 33 0 0 10 2 55 0 0 46 100 100 100 100 100 100 100 100 100 100 100 100 100

GFSFLT1_prec_cloud_024.txt.gz
Cloud_Cover
0 0 0 0 0 0 0 0 0 0 4 0 0 0 0 0 0 0 0 0 0 0 0 0 0 0 0 0 0 0 6 20 9
0 0 0 0 0 0 0 0 0 0 1 3 0 0 0 0 0 0 0 0 0 0 0 0 0 0 0 0 0 0 2 0 13
0 0 0 0 0 0 0 0 0 0 0 0 0 0 0 0 0 0 0 0 0 0 0 0 0 0 0 0 0 0 0 1 5
0 0 0 0 0 0 0 0 1 0 0 0 0 0 0 0 0 0 0 0 0 0 0 0 0 0 0 0 0 0 0 0 0
0 5 1 1 2 0 0 0 3 5 0 0 0 0 5 0 0 0 0 0 0 0 0 0 4 0 0 0 0 0 0 0 0
0 0 0 0 0 5 8 5 5 5 5 0 0 0 0 0 4 5 0 0 0 0 0 62 8 0 0 0 0 0 0 0 0
0 0 0 2 0 0 5 5 6 100 31 5 4 0 0 0 4 5 0 0 0 0 0 0 0 0 0 0 0 0 0 0 0
0 0 1 5 5 5 5 5 6 32 100 100 7 4 2 4 0 0 0 0 0 0 0 0 0 0 0 0 0 0 0 0 0
0 0 0 0 5 5 5 5 5 5 5 10 5 4 0 0 0 0 0 0 0 0 0 0 0 0 0 0 0 0 0 0 0
0 0 0 0 2 4 0 4 4 2 3 2 0 0 0 2 4 2 0 1 0 0 0 0 0 0 0 0 0 0 0 0 0
0 0 0 0 0 0 3 5 4 5 3 2 1 0 4 2 10 92 2 4 3 0 0 0 0 0 0 0 0 0 0 0 0
0 0 0 0 0 0 0 0 0 0 0 0 0 0 0 4 5 62 11 1 0 0 0 0 0 0 0 0 0 0 0 0 0
5 0 0 0 0 0 0 0 0 0 0 0 0 0 0 0 0 7 96 1 0 0 0 1 0 0 4 0 3 5 5 7 0
0 0 1 0 0 0 0 0 0 0 0 0 0 0 0 0 0 0 1 0 0 0 0 0 0 0 1 2 2 4 5 5 4
3 5 5 5 5 3 0 0 0 0 0 0 0 0 0 0 0 0 0 0 0 0 0 2 0 5 0 0 2 10 49 89 44
0 2 5 5 5 5 4 0 0 0 0 0 0 0 0 0 0 0 0 0 1 26 11 0 22 1 0 1 4 18 32 40 86
0 0 0 1 5 4 0 0 0 0 0 0 0 0 0 0 0 0 3 0 14 8 7 44 0 5 5 5 6 6 81 97 70
2 0 0 0 0 2 5 1 0 0 0 0 0 0 0 0 0 0 2 2 0 0 0 0 0 5 5 9 13 100 94 88 100
82 86 70 67 77 48 0 0 0 1 0 0 0 0 0 3 0 0 0 0 0 87 49 90 100 86 54 34 99 100 100 100 100
100 100 100 99 84 85 66 94 100 100 26 0 0 0 0 0 18 0 0 0 0 0 33 100 100 100 100 100 92 100 100 100 100

GFSFLT1_prec_cloud_027.txt.gz
Cloud_Cover
57 0 0 0 0 0 0 0 0 0 0 0 3 0 0 0 0 0 0 0 0 0 0 0 0 0 0 0 0 0 0 0 8
38 8 0 0 0 0 0 0 0 0 0 0 5 0 0 0 0 0 0 0 0 0 0 0 0 0 0 0 0 0 0 0 0
0 5 1 0 0 0 0 0 0 0 0 5 5 0 0 0 0 0 0 0 0 0 0 0 0 0 0 0 0 0 0 0 0
0 0 0 0 0 0 0 0 0 0 0 0 1 0 0 0 0 0 0 0 0 0 0 0 0 0 0 1 0 0 0 0 0
0 0 0 0 0 0 0 0 0 0 0 0 0 0 0 0 0 0 0 0 0 0 0 0 0 0 6 68 0 0 0 0 0
0 0 0 0 0 0 0 0 0 0 0 0 0 0 0 2 0 0 0 0 0 0 0 0 0 0 0 0 0 0 0 0 0
0 0 2 2 2 0 0 0 0 0 0 2 5 0 0 0 0 0 0 0 0 0 0 0 0 0 0 0 0 0 0 0 0
0 0 0 0 0 0 0 0 0 3 0 3 0 0 0 0 0 0 0 0 0 0 0 0 0 0 0 0 0 0 0 0 0
0 0 0 0 0 0 0 0 0 5 2 5 72 44 4 0 0 0 0 0 0 1 0 0 0 0 0 0 0 0 0 0 0
0 0 0 0 0 1 0 0 0 0 0 2 5 5 64 95 100 28 5 4 3 0 0 0 0 0 0 0 0 0 0 0 0
0 0 0 0 0 1 5 4 0 4 5 2 5 5 4 0 0 0 5 74 14 2 0 0 0 0 0 0 0 0 0 0 0
0 0 0 0 0 0 1 4 0 0 0 2 5 5 5 0 0 0 0 2 78 4 0 0 0 0 0 0 0 0 0 0 0
0 0 0 0 0 0 0 3 2 0 0 0 4 5 5 4 0 0 0 0 1 5 3 0 0 0 0 0 0 0 0 2 0
0 0 0 0 0 0 0 0 0 0 0 0 0 0 0 0 0 0 0 0 0 0 1 0 0 0 0 0 0 0 1 4 1
0 0 0 0 0 0 0 0 0 0 0 0 0 0 0 0 0 0 0 0 0 0 0 0 0 2 0 0 0 1 15 2 1
0 0 0 0 0 0 0 0 0 0 0 0 0 0 0 0 0 0 0 0 0 0 1 0 6 6 0 0 0 0 45 27 5
0 0 5 3 0 0 0 0 0 0 0 0 0 0 0 0 0 0 0 0 9 6 0 19 33 10 8 5 26 1 0 1 9
2 0 0 2 5 3 1 0 1 6 6 14 0 0 0 0 0 0 7 2 0 6 3 4 14 21 11 9 11 9 34 49 45
75 36 67 51 39 34 33 36 57 64 10 0 7 12 2 2 0 0 1 1 9 7 16 26 91 100 56 12 20 16 82 84 72
100 58 94 91 84 100 67 96 57 27 16 7 0 0 0 0 19 0 0 0 0 0 33 100 100 100 100 100 97 100 100 100 100

GFSFLT1_prec_cloud_030.txt.gz
Cloud_Cover
65 5 15 3 0 0 0 0 0 0 0 0 0 0 0 0 0 0 0 0 0 0 0 0 0 0 0 0 0 0 0 0 0
97 5 97 2 0 0 0 0 0 0 0 0 0 4 4 0 0 0 0 0 0 0 0 0 0 0 0 0 0 0 0 0 0
82 5 5 5 0 0 0 0 0 0 0 0 0 5 2 0 0 0 0 0 0 0 0 0 0 0 0 0 2 4 0 0 0
5 8 22 5 0 0 0 0 0 0 0 0 0 0 0 0 0 0 0 0 0 0 0 0 0 0 0 0 1 61 22 2 0
2 23 97 6 0 0 0 0 0 0 0 0 0 1 5 1 0 0 0 0 0 0 0 0 0 0 0 0 0 0 0 0 0
3 5 44 31 2 0 0 0 0 0 0 0 0 0 0 0 0 0 0 0 0 0 0 0 0 0 0 0 0 0 0 0 0
0 0 8 5 3 0 0 0 0 0 0 0 0 0 0 0 0 0 0 0 0 0 0 0 0 0 0 0 0 0 0 0 0
2 0 7 79 32 11 4 0 0 0 0 0 0 0 0 0 0 0 0 0 0 0 0 0 0 0 0 0 0 0 0 0 0
0 0 0 5 5 14 5 1 0 0 0 0 0 0 0 0 0 0 0 0 0 0 0 0 0 1 3 0 0 0 0 0 0
0 0 0 0 0 0 0 0 0 0 0 0 0 0 0 0 0 0 0 0 0 0 0 4 5 3 0 0 0 0 0 0 0
0 0 0 0 0 0 0 0 0 0 0 0 0 0 0 0 4 5 45 100 100 82 5 5 0 0 0 0 0 0 0 0 0
0 0 0 0 0 0 0 0 0 0 0 0 0 0 4 3 0 5 0 1 1 0 5 5 5 0 0 0 0 0 0 0 0
0 0 0 0 0 0 0 1 6 5 0 0 0 5 64 100 18 5 2 2 0 0 0 4 17 2 1 0 0 0 0 2 0
0 0 0 0 0 0 0 0 0 10 20 5 1 0 0 4 5 5 5 5 0 0 0 7 0 0 6 1 0 3 20 62 56
0 0 0 0 0 0 0 0 0 0 1 5 5 5 5 5 5 5 10 26 5 0 0 0 0 17 0 0 0 34 20 23 60
0 0 0 0 0 0 0 0 0 0 0 0 0 0 0 0 0 0 0 0 0 0 0 0 0 2 0 10 14 4 30 39 16
57 99 7 0 0 0 0 0 0 0 0 0 0 0 0 0 0 0 0 0 0 0 0 4 0 19 36 21 0 0 1 5 17
81 82 0 1 2 22 5 0 0 0 0 0 0 0 0 0 0 0 2 4 0 28 0 0 23 13 33 46 33 70 90 88 98
13 8 4 12 0 73 20 2 59 11 0 0 0 0 0 0 0 0 0 1 1 1 98 100 100 100 83 100 86 100 100 100 100
100 91 33 8 44 2 67 0 13 31 21 0 0 0 1 0 0 44 8 19 51 14 92 87 45 90 100 98 97 100 100 100 100

GFSFLT1_prec_cloud_033.txt.gz
Cloud_Cover
91 28 54 54 94 0 0 0 0 0 0 0 0 0 0 0 0 0 0 0 0 0 0 0 0 0 0 0 0 0 0 0 0
99 5 4 0 0 0 0 0 0 0 0 0 0 0 0 0 0 0 0 0 0 0 0 0 0 0 0 0 0 0 5 4 0
80 17 4 0 0 0 0 0 0 0 0 0 0 0 0 0 0 0 0 0 0 0 0 0 0 0 0 0 0 0 0 3 1
10 12 5 0 0 0 5 0 0 0 0 0 0 0 0 0 0 0 0 0 0 0 0 0 0 0 0 0 0 0 0 0 0
5 7 5 0 0 0 5 0 0 0 0 0 0 0 0 0 0 0 0 0 0 0 0 0 0 0 0 0 0 0 0 0 0
1 5 6 5 1 0 4 0 0 0 0 0 0 0 0 0 0 0 0 0 0 0 0 0 0 0 0 0 0 0 0 0 0
0 25 57 10 5 0 0 0 0 0 0 0 0 0 0 0 0 1 4 0 0 0 0 0 0 0 0 0 0 0 0 0 0
0 0 7 5 2 0 0 0 0 0 0 0 0 0 0 0 0 5 5 0 0 0 0 0 0 0 0 0 0 0 0 0 0
0 0 5 5 5 5 0 0 0 0 0 0 0 0 0 0 0 0 0 0 0 0 0 0 0 0 0 0 0 3 0 0 0
0 0 3 10 5 5 0 0 0 0 0 0 0 0 0 0 0 1 0 0 0 0 0 0 0 0 0 0 4 0 0 0 0
0 0 0 0 0 0 0 2 0 0 0 0 0 0 0 0 0 5 3 0 0 0 3 2 12 25 5 4 0 0 0 0 0
0 0 0 0 0 0 0 1 2 5 4 0 0 0 0 0 0 5 31 5 3 2 11 69 81 47 80 2 0 0 0 0 0
0 0 0 0 0 0 0 0 4 5 4 4 0 0 0 13 100 99 94 5 5 5 1 0 0 0 5 2 3 2 12 14 4
0 0 0 0 0 0 0 0 0 0 2 3 1 0 2 5 5 41 76 5 5 5 5 4 1 4 5 5 5 15 52 76 77
0 0 0 0 0 0 0 0 0 0 0 4 5 4 5 1 2 0 0 3 5 9 15 5 5 5 9 7 2 74 66 58 100
0 0 0 0 0 0 0 0 0 0 0 0 0 2 5 11 5 5 5 6 16 28 53 55 5 4 17 1 4 37 89 90 34
0 0 0 5 0 0 0 0 0 0 0 0 0 0 0 2 5 5 5 5 5 5 4 4 63 61 24 5 39 16 6 2 62
98 12 0 0 5 4 5 2 0 0 0 0 0 0 0 0 0 0 0 0 2 0 2 13 6 3 2 0 17 6 62 58 95
21 74 0 0 0 2 10 38 2 0 0 0 0 0 0 0 0 0 0 0 18 92 71 98 100 98 98 95 79 98 100 100 100
0 4 23 0 0 5 5 21 5 4 5 0 23 56 0 0 0 0 0 0 0 4 40 100 100 100 100 100 100 100 100 100 100

GFSFLT1_prec_cloud_036.txt.gz
Cloud_Cover
17 32 58 89 100 5 35 1 0 0 0 0 0 0 0 0 0 0 0 0 0 0 0 0 0 0 0 0 0 0 0 0 0
5 0 0 38 3 100 14 79 0 0 0 0 0 0 0 0 0 0 0 0 0 0 0 0 0 0 0 0 0 0 0 0 0
0 3 4 5 3 91 66 17 0 0 0 0 0 0 0 0 0 0 0 0 0 0 0 0 0 0 0 0 0 0 0 0 0
0 0 5 4 0 4 2 0 0 0 0 0 0 0 0 0 0 0 0 0 0 0 0 0 0 0 0 0 0 0 0 0 0
0 0 1 2 0 4 0 0 0 0 0 0 0 0 0 0 0 0 0 0 0 0 0 0 0 0 0 0 0 0 0 0 0
0 2 0 0 3 5 0 0 0 0 0 0 0 0 0 0 0 0 0 0 0 0 0 0 0 0 0 0 0 0 0 0 0
0 0 0 0 5 5 5 5 3 0 0 0 0 0 0 0 0 0 0 0 0 0 0 0 0 0 0 0 0 0 0 0 0
0 0 0 0 1 1 3 5 5 0 0 0 0 0 0 0 0 0 0 3 0 5 4 0 0 0 0 0 0 0 0 0 0
0 0 0 5 1 0 1 2 3 0 0 0 0 0 0 0 0 0 0 5 5 23 5 5 5 2 0 0 0 0 0 0 0
0 0 0 0 0 0 0 5 5 0 0 0 0 0 0 0 0 0 0 5 4 5 4 5 0 0 0 0 0 0 1 5 3
0 0 0 0 0 0 3 5 5 5 5 0 0 0 1 1 0 3 5 2 2 0 0 6 0 0 0 0 14 44 37 4 0
0 0 0 0 0 0 0 0 8 12 2 0 0 1 2 18 4 100 91 27 4 3 0 0 0 0 3 11 86 40 6 2 0
0 0 0 0 0 0 0 0 6 8 5 5 5 0 0 0 5 58 97 100 7 5 4 1 0 0 1 0 5 3 4 16 5
0 0 0 0 0 0 0 0 0 1 4 28 36 3 0 1 5 54 100 100 71 60 99 12 16 3 0 0 0 9 30 26 38
1 0 0 0 0 0 0 0 0 0 0 87 73 32 21 0 56 76 14 52 58 51 5 5 77 91 1 0 0 57 78 47 70
5 3 0 0 0 0 0 0 0 0 0 0 2 9 6 5 61 47 37 12 25 5 20 67 5 2 2 11 10 12 100 99 62
0 10 4 0 0 3 13 0 0 0 0 0 0 0 3 5 5 2 0 0 0 0 0 0 0 16 36 23 27 32 63 84 97
5 0 0 0 0 1 0 0 0 0 0 0 0 0 0 0 1 16 13 81 56 11 22 20 5 5 5 33 35 38 95 93 69
8 5 0 0 2 0 0 0 0 0 0 0 0 0 0 0 0 6 21 38 23 59 22 91 73 51 10 8 23 22 55 100 100
34 95 2 4 0 0 0 0 0 0 0 0 0 0 0 0 4 2 27 4 0 0 62 62 99 98 99 100 59 100 100 100 100

GFSFLT1_prec_cloud_039.txt.gz
Cloud_Cover
1 5 9 49 93 30 5 5 5 0 0 0 0 0 0 0 0 0 0 0 0 0 0 0 0 0 0 0 0 0 0 0 0
0 4 8 97 94 10 6 5 5 9 5 0 0 0 0 0 0 0 0 0 0 0 0 0 0 0 0 0 0 0 0 0 0
0 3 22 91 58 6 1 61 96 5 5 24 0 0 0 0 0 0 0 0 0 0 0 0 0 0 0 0 0 0 0 2 0
0 0 4 55 53 0 0 4 0 67 54 22 4 0 0 0 0 0 0 0 0 0 0 0 0 0 0 0 0 0 0 0 0
0 4 5 6 74 26 5 0 1 5 5 0 0 0 0 0 0 0 0 0 0 0 0 0 0 0 0 0 0 0 0 0 0
0 0 70 98 86 5 0 4 0 0 0 0 0 0 0 0 0 0 0 0 0 0 0 0 0 0 0 0 0 0 0 0 0
0 0 32 85 20 0 5 4 2 1 0 0 0 0 0 0 0 0 0 0 0 0 0 0 0 0 0 0 0 0 0 0 0
0 0 0 5 0 2 4 5 5 5 0 0 0 0 0 0 0 0 0 0 0 0 0 4 5 2 0 0 0 0 0 0 0
0 0 0 2 0 0 0 3 5 5 0 0 0 0 0 0 0 0 0 0 0 0 0 5 5 5 5 5 5 0 0 0 0
0 0 0 0 0 0 0 0 0 5 2 0 0 0 0 0 0 0 0 0 0 0 0 5 5 5 5 5 1 0 0 0 5
0 0 0 2 4 5 0 4 4 58 5 0 0 0 0 0 0 0 0 0 0 8 3 3 5 5 5 5 0 0 0 42 100
0 0 0 0 1 0 0 0 54 5 5 1 0 0 2 0 0 0 0 4 5 5 3 23 5 5 5 0 0 0 5 44 34
64 6 0 0 0 0 0 1 54 5 4 2 4 5 2 0 5 62 100 98 84 42 5 1 4 21 17 0 2 5 5 19 0
96 85 35 0 0 0 0 0 2 4 69 22 6 4 5 48 17 100 99 64 99 71 5 1 8 42 6 0 0 1 10 16 0
32 40 24 32 5 1 0 0 5 4 82 47 5 5 4 5 1 35 97 100 59 86 42 48 71 72 61 100 44 20 75 23 73
91 60 63 16 26 3 0 0 1 5 4 5 5 30 99 63 5 3 75 66 100 77 93 90 99 76 100 100 69 95 98 98 42
98 99 96 46 8 1 2 0 0 0 0 1 2 5 69 99 82 96 32 15 12 5 5 74 100 81 98 83 79 16 12 73 100
100 60 67 69 24 27 20 0 0 0 0 0 3 0 0 2 18 100 100 100 100 98 20 22 16 24 36 41 89 98 76 100 100
100 100 79 18 17 10 13 0 0 0 0 0 0 0 0 4 12 42 100 72 69 100 100 100 100 99 34 38 68 83 98 98 99
30 100 5 19 52 19 5 0 0 0 0 0 0 0 0 0 32 97 100 12 0 0 84 51 73 59 97 100 57 100 100 100 100

GFSFLT1_prec_cloud_042.txt.gz
Cloud_Cover
36 7 5 33 50 61 31 5 4 5 5 0 0 0 0 0 0 0 0 0 0 0 4 5 1 0 0 0 0 0 0 0 0
0 0 5 5 29 3 0 0 5 4 2 25 0 0 0 0 0 0 0 0 0 0 0 5 0 0 0 0 0 0 0 0 0
0 0 0 6 25 19 0 0 4 4 3 5 4 0 0 0 0 0 0 0 0 0 0 0 0 0 0 0 0 0 0 0 0
0 0 0 5 5 79 10 1 0 71 92 23 4 5 0 0 0 0 0 0 0 0 0 0 0 0 0 0 0 0 0 0 0
2 0 0 5 5 89 95 1 0 0 0 2 2 2 5 5 0 0 0 0 0 0 0 0 0 0 0 0 0 0 0 0 0
0 0 8 3 69 5 5 43 0 0 0 2 0 5 5 4 0 0 0 0 0 0 3 0 0 0 0 0 0 0 2 0 5
0 0 28 8 61 56 0 3 24 0 0 0 0 1 0 1 0 0 0 0 0 0 0 0 0 0 5 5 5 1 5 4 4
0 0 0 5 5 65 86 4 4 4 2 0 0 0 0 0 0 0 0 0 0 0 0 0 0 0 0 0 5 5 5 5 0
0 0 0 0 4 6 70 1 5 5 0 0 0 0 0 0 0 0 0 0 0 0 0 0 0 0 0 0 20 79 40 5 3
42 0 0 0 3 55 5 3 4 4 0 0 0 0 0 0 0 0 0 0 0 0 0 0 0 0 3 5 5 38 49 5 1
98 27 0 0 5 5 20 90 3 1 5 0 0 0 0 0 0 0 0 0 0 0 0 0 5 0 0 5 5 12 57 62 0
100 99 0 1 2 4 5 1 5 0 5 3 0 0 0 0 0 0 0 0 0 0 9 0 0 0 0 1 5 5 5 6 0
100 96 6 0 5 0 5 70 5 5 5 3 0 0 0 0 0 0 0 0 0 0 2 12 22 1 3 3 1 5 5 34 0
100 100 53 0 2 58 95 82 100 5 89 3 1 2 0 0 0 0 0 0 3 5 5 4 28 43 16 10 5 6 5 19 5
100 100 97 98 100 38 27 56 68 93 80 5 5 5 5 0 4 5 5 1 42 99 84 30 40 46 46 84 16 77 72 19 69
100 99 100 98 40 18 1 3 5 35 6 71 100 97 96 2 0 9 68 15 8 8 9 20 72 73 83 97 84 90 90 97 36
100 100 100 60 73 36 21 27 100 78 11 4 40 77 99 100 88 0 1 18 100 15 100 94 73 23 64 13 44 46 73 91 99
92 100 100 48 75 60 27 30 100 100 96 76 92 100 100 80 100 73 100 67 55 58 83 100 91 77 36 49 75 45 60 77 97
92 100 100 75 94 73 26 5 23 18 45 51 13 35 5 60 22 95 82 56 95 100 100 100 100 100 48 91 84 100 91 99 100
33 100 100 100 99 62 18 5 5 5 5 2 0 0 0 1 97 100 100 100 100 100 100 100 100 100 100 100 100 100 100 100 100

GFSFLT1_prec_cloud_045.txt.gz
Cloud_Cover
97 5 5 5 4 3 7 1 2 0 0 3 0 0 0 0 0 0 0 0 0 0 0 1 0 0 0 0 0 0 0 0 0
27 57 5 3 3 5 5 0 0 0 0 5 5 9 0 0 0 0 0 0 0 0 0 5 0 0 0 0 0 0 0 0 0
68 100 15 5 4 5 12 1 0 0 0 0 2 9 32 0 0 0 0 0 0 0 0 0 0 0 0 0 0 0 0 0 0
15 8 22 5 5 4 4 0 0 0 0 0 5 0 5 1 0 0 0 0 0 0 0 0 0 0 0 0 0 0 0 0 0
13 68 17 5 5 5 3 0 0 0 0 0 5 2 3 1 2 0 0 0 0 0 0 0 0 0 0 0 0 5 5 3 0
13 68 79 49 33 7 5 5 0 0 0 0 0 8 11 43 6 5 0 0 0 0 0 0 0 0 0 1 5 10 5 5 5
2 4 8 12 94 32 41 5 5 0 0 0 0 0 0 7 50 4 3 0 0 0 0 0 0 0 5 5 5 5 5 24 54
0 0 5 4 9 10 16 17 3 4 0 0 0 0 0 0 4 5 3 0 0 0 0 0 0 0 0 5 5 5 5 9 86
0 0 5 5 5 5 5 5 5 4 3 0 0 0 0 0 0 0 0 0 0 0 0 0 0 0 0 5 5 5 5 5 73
0 0 0 3 3 5 6 5 1 3 3 1 0 0 0 0 0 0 0 0 0 0 0 0 0 0 0 0 5 5 7 13 7
19 0 0 0 0 5 98 3 9 17 26 0 0 0 0 0 0 0 0 0 0 0 0 0 0 0 0 0 0 5 5 5 5
100 100 89 0 0 1 12 67 75 53 5 0 0 0 0 0 0 0 0 0 0 0 0 0 0 0 0 0 0 1 5 10 5
100 100 95 0 0 0 0 10 33 97 35 0 0 0 0 0 0 0 0 0 0 0 0 0 0 2 4 5 2 9 0 43 5
100 100 96 0 0 0 0 1 91 99 5 1 2 0 0 0 0 0 0 0 0 1 8 0 1 0 0 0 0 0 39 27 5
100 100 99 9 0 0 0 16 100 90 7 81 4 0 0 0 0 0 0 0 0 0 4 17 12 16 9 6 26 46 69 36 75
100 100 100 99 34 5 0 65 76 5 11 9 4 0 0 0 0 0 0 0 2 14 31 0 11 5 5 5 17 13 86 94 31
100 100 100 100 89 81 68 99 99 85 16 96 5 0 2 0 0 0 0 0 0 0 0 13 5 2 5 5 6 42 76 19 65
100 100 100 100 100 98 100 79 47 69 100 64 43 96 64 5 56 1 0 5 14 5 4 21 58 12 5 5 5 5 12 28 39
100 100 100 100 100 97 93 66 84 33 71 2 45 60 19 100 94 78 4 12 37 100 91 100 100 94 96 80 79 100 100 100 100
48 54 44 82 86 94 77 47 9 91 87 97 32 5 100 82 99 99 100 93 2 18 100 100 100 100 89 66 94 100 100 100 100

GFSFLT1_prec_cloud_048.txt.gz
Cloud_Cover
5 5 5 2 1 0 0 0 0 0 2 2 0 0 0 0 0 0 0 0 0 0 0 0 0 0 0 0 0 0 0 0 4
1 0 5 5 2 0 0 0 0 0 0 2 4 0 0 0 0 0 0 0 0 0 0 0 0 0 0 0 0 0 2 0 9
4 0 60 5 5 0 0 0 0 0 0 0 2 0 0 0 0 0 0 0 0 0 0 0 0 0 0 0 0 0 0 0 3
0 0 5 18 7 5 3 0 0 0 0 0 0 0 0 0 0 0 0 0 0 0 0 0 0 0 0 0 0 0 0 0 0
0 3 46 60 5 49 4 0 0 0 0 0 0 0 0 0 0 0 0 0 0 0 0 0 0 0 0 0 0 0 0 0 0
0 4 94 48 6 5 5 0 4 1 0 0 0 0 4 1 0 0 0 0 0 0 0 0 0 0 0 0 0 0 0 0 0
0 4 9 5 5 5 5 2 0 0 0 0 0 0 4 5 5 5 0 0 0 0 0 0 0 0 0 0 0 1 0 0 0
0 0 45 5 5 5 5 35 3 3 0 0 0 0 0 0 1 4 5 5 0 0 0 0 0 0 0 0 0 0 5 5 0
0 0 63 5 5 5 5 5 5 32 0 0 0 0 0 0 0 0 5 58 55 5 0 0 0 0 0 0 0 0 4 5 5
0 0 4 5 5 5 5 33 62 5 5 0 0 0 0 0 0 0 0 3 12 7 0 0 0 0 0 0 0 0 0 0 5
0 0 0 2 4 5 5 5 12 19 5 5 0 4 0 0 0 0 0 0 1 0 0 0 0 0 0 0 0 0 0 0 0
4 0 0 0 0 0 2 3 10 53 5 0 4 0 0 0 0 0 0 0 0 0 0 0 0 0 0 0 0 0 0 5 0
1 21 18 4 0 0 0 0 13 78 5 24 5 4 0 0 0 0 0 0 0 0 0 0 0 0 0 0 0 0 0 48 0
52 42 58 8 0 0 0 4 4 5 8 8 67 5 0 0 0 0 0 0 0 0 0 0 0 0 0 0 0 0 4 52 0
94 98 80 0 0 0 0 2 4 5 34 100 49 7 0 0 0 0 0 0 0 0 0 0 0 0 0 0 0 12 57 28 73
100 100 100 49 0 0 0 0 3 5 73 53 100 62 0 0 0 0 0 0 8 2 9 0 0 0 0 0 0 0 54 52 33
100 100 100 100 100 91 78 43 9 4 8 50 93 94 2 0 15 7 0 0 0 0 0 0 0 0 0 0 2 1 5 5 8
100 100 100 100 100 100 100 100 100 100 86 16 87 27 11 19 14 30 45 42 13 15 0 18 0 1 5 8 5 4 4 5 5
100 100 100 100 100 100 100 100 100 100 100 92 12 12 5 3 4 56 92 96 64 91 84 100 100 100 55 91 74 100 96 100 100
100 100 100 100 100 100 100 100 100 100 100 82 100 100 99 74 69 99 49 26 90 100 100 100 100 100 100 98 100 100 100 100 100

GFSFLT1_prec_cloud_051.txt.gz
Cloud_Cover
13 0 0 0 0 0 0 0 0 0 0 0 0 0 0 0 0 0 0 0 0 0 0 0 8 0 0 2 26 1 11 0 0
99 21 0 0 5 0 0 0 0 0 0 0 0 0 0 0 0 0 0 0 0 0 0 1 0 0 0 0 0 5 9 0 0
20 100 10 0 5 0 0 0 0 0 0 0 0 0 0 0 0 0 0 0 0 0 0 0 73 0 0 0 0 0 0 4 0
2 35 29 0 3 2 4 1 0 0 0 0 0 0 0 0 0 0 0 0 0 0 0 0 0 0 0 0 0 0 0 0 40
4 6 97 5 2 5 5 5 1 0 0 0 0 0 0 0 0 0 0 0 0 0 0 0 0 0 0 0 0 0 0 0 0
2 6 8 7 40 1 5 1 5 0 0 0 0 0 0 0 0 0 0 0 0 0 0 0 0 0 0 0 0 0 0 0 0
1 5 100 55 3 0 5 5 5 1 0 0 0 0 0 0 0 0 0 0 0 0 0 0 0 0 0 0 0 0 0 0 0
0 3 3 43 5 8 5 5 5 5 0 4 0 0 0 0 0 0 0 0 0 0 0 0 0 0 0 0 0 0 0 0 0
6 0 0 40 14 20 5 5 3 5 2 2 0 0 0 0 0 0 0 0 5 1 0 0 0 0 0 0 0 0 0 0 0
71 7 0 0 0 0 0 5 2 2 5 3 0 0 0 0 0 0 0 0 0 4 5 2 2 5 2 0 0 0 0 0 0
45 17 5 0 0 0 0 1 3 2 5 5 4 0 0 0 0 0 0 0 0 0 0 5 5 5 5 0 0 0 0 0 0
5 1 0 0 0 0 4 5 1 0 5 5 5 0 0 0 0 0 0 0 0 0 0 0 0 5 0 0 0 0 0 0 0
0 0 0 0 0 0 5 5 5 1 2 5 5 0 0 0 0 0 0 0 0 0 0 0 0 0 0 0 0 3 0 6 0
0 1 0 0 0 0 4 20 5 2 0 0 5 5 0 2 0 0 0 0 0 0 0 0 0 0 0 0 0 0 0 15 0
4 13 0 0 0 0 0 0 0 5 5 4 5 1 5 5 5 4 0 0 0 0 0 0 0 0 0 0 0 0 25 0 15
80 91 56 13 32 0 0 0 0 5 5 5 5 4 5 5 4 5 0 0 2 0 0 0 0 0 0 0 0 0 4 8 2
100 100 100 100 90 61 7 0 0 5 5 5 5 5 28 5 51 2 0 31 60 2 0 1 0 0 0 0 0 0 0 1 6
100 100 100 100 100 100 100 84 9 44 15 0 5 2 2 5 82 22 23 54 31 8 33 12 0 0 0 0 0 0 4 1 2
100 100 100 100 100 100 100 100 97 43 100 88 4 8 0 7 28 100 82 38 0 85 66 100 100 100 54 13 65 76 98 100 94
100 100 100 100 100 100 100 100 100 100 100 100 100 84 78 36 46 100 100 73 0 0 37 100 100 100 100 100 100 100 100 100 100

GFSFLT1_prec_cloud_054.txt.gz
Cloud_Cover
54 58 0 0 0 0 0 0 0 0 0 0 0 0 0 0 0 0 0 0 0 36 0 38 0 0 0 0 0 0 0 0 0
99 88 95 0 0 0 0 0 0 0 0 0 0 0 0 0 0 0 0 0 0 0 0 28 30 0 0 0 0 0 0 0 0
96 100 100 85 8 1 0 0 0 0 0 0 0 0 0 0 0 0 0 0 0 0 0 8 79 21 0 0 0 0 0 0 0
94 100 100 100 100 68 5 4 0 0 0 0 0 0 0 0 0 0 0 0 0 0 0 0 38 7 0 0 0 0 0 0 3
72 22 100 100 100 100 92 5 0 0 0 0 0 0 0 0 0 0 0 0 0 0 0 0 0 0 0 0 0 0 0 0 0
92 6 92 100 100 100 99 0 0 0 0 0 0 0 0 0 0 0 0 0 0 0 0 0 0 0 0 0 0 0 0 0 0
3 92 96 100 100 86 90 0 0 0 0 0 0 0 0 0 0 0 0 0 0 0 0 0 0 0 0 0 0 0 0 0 0
4 3 50 100 95 100 100 75 0 0 0 0 0 0 0 0 0 0 0 0 0 0 0 0 0 0 0 0 0 0 0 0 0
4 0 69 100 40 100 80 22 0 0 0 0 0 0 0 0 0 0 2 0 0 0 0 0 0 0 0 0 0 0 0 0 0
33 0 1 92 51 83 5 84 28 0 0 0 0 0 0 0 0 0 0 0 0 0 0 0 0 0 0 0 0 0 0 0 0
100 8 0 13 62 81 100 100 100 100 4 0 0 0 0 0 0 0 0 0 1 0 0 0 0 0 0 0 0 0 0 0 0
100 72 53 5 0 5 1 26 100 100 0 0 2 0 0 0 0 0 0 0 0 0 0 0 0 0 0 0 2 4 2 0 0
100 75 100 5 5 2 5 0 0 0 0 0 4 0 1 0 0 0 0 0 0 0 0 0 0 0 0 0 0 0 0 0 0
50 100 37 100 13 0 3 1 0 0 0 0 0 0 1 5 1 0 0 0 0 0 0 0 0 0 0 0 0 0 0 0 0
99 98 100 31 11 0 0 0 0 0 0 0 3 3 0 0 0 0 0 1 2 0 0 0 0 0 0 0 0 0 30 0 0
18 100 96 42 46 29 14 0 5 0 0 1 5 5 0 0 0 0 0 5 1 0 0 0 0 0 0 0 0 0 4 3 0
100 91 100 100 100 96 41 20 3 0 3 5 5 5 5 3 0 0 2 5 2 0 0 0 1 0 0 0 0 0 0 1 2
100 100 100 100 100 100 99 72 88 38 11 5 1 1 5 5 4 0 0 0 5 0 0 2 0 0 0 0 0 0 0 0 0
100 100 100 100 100 100 100 100 100 80 53 38 0 0 2 5 5 0 0 0 57 92 79 100 80 78 6 16 79 76 61 0 0
100 100 100 100 100 100 100 100 100 82 73 49 50 0 5 10 5 0 0 1 0 47 99 100 100 100 100 74 97 100 100 100 38

GFSFLT1_prec_cloud_057.txt.gz
Cloud_Cover
100 100 100 45 0 0 0 0 0 0 0 0 0 0 0 0 0 0 0 0 0 59 19 0 0 0 0 0 0 0 0 0 0
100 100 100 88 22 0 0 0 0 0 0 0 0 0 0 0 0 0 0 0 0 0 9 0 0 0 0 0 0 0 0 0 0
100 100 98 86 10 2 5 1 0 0 0 0 0 0 0 0 0 0 0 0 0 0 0 0 0 0 0 0 0 0 0 0 0
79 77 96 100 100 100 2 58 11 0 0 0 0 0 0 0 0 0 0 0 0 0 0 0 0 0 0 0 0 0 0 0 0
100 97 100 100 100 100 100 17 5 4 0 0 0 0 0 0 0 0 0 0 0 0 0 0 0 0 0 0 0 0 0 0 0
92 100 100 100 100 100 100 95 20 19 5 2 0 0 0 0 0 0 0 0 0 0 0 0 0 0 0 0 0 0 0 0 0
31 44 100 100 100 100 100 85 93 100 32 5 0 0 0 0 0 0 0 0 0 0 0 0 0 0 0 0 0 0 0 0 0
100 100 69 100 100 100 100 96 93 100 92 5 0 0 0 0 0 0 0 0 0 0 0 0 0 0 0 0 0 0 0 0 0
100 100 56 64 100 100 100 100 100 100 100 100 30 0 0 0 0 0 0 0 0 0 0 0 0 0 0 0 0 0 0 0 0
100 100 67 67 98 100 100 100 100 100 100 41 87 5 4 0 0 0 0 0 0 0 0 0 0 0 0 0 0 0 0 1 0
100 100 100 5 30 98 100 100 100 100 100 100 79 55 42 0 0 0 0 0 0 0 0 0 0 0 0 0 0 0 0 1 0
94 70 95 2 0 100 100 100 100 100 100 100 100 100 100 84 0 0 0 0 0 0 0 0 0 0 0 0 0 0 0 0 0
100 100 90 5 0 43 100 100 100 100 100 100 100 100 100 96 4 0 0 0 0 0 0 0 0 0 0 0 0 0 0 0 0
100 100 67 9 16 4 94 98 44 83 100 100 100 100 100 84 16 4 0 0 0 0 0 0 0 0 0 0 0 0 0 0 0
100 98 100 91 6 17 24 85 70 100 100 100 100 100 100 52 3 5 4 0 0 0 0 0 0 0 0 0 0 0 25 0 3
100 10 7 100 98 74 21 5 5 54 100 100 100 99 89 91 5 2 5 0 0 0 0 0 0 0 0 0 0 0 24 24 0
20 49 5 92 100 100 53 85 28 71 95 100 100 100 100 88 1 0 0 0 0 0 0 0 0 1 9 7 1 0 0 3 16
76 69 85 100 100 100 99 100 79 95 70 74 48 3 4 17 0 0 0 0 0 0 0 0 0 0 0 13 14 0 0 0 0
100 92 94 98 78 100 44 100 93 82 100 100 100 86 0 0 0 0 0 0 47 100 86 91 44 0 0 0 48 0 0 30 36
86 100 100 100 97 97 100 100 100 99 100 100 100 99 34 0 0 5 2 0 0 9 100 100 100 100 95 68 91 100 100 77 78

GFSFLT1_prec_cloud_060.txt.gz
Cloud_Cover
100 94 82 97 18 2 4 0 0 0 0 0 0 0 0 0 0 0 0 0 0 0 8 0 2 0 0 0 0 0 0 0 0
89 99 100 100 100 6 0 0 0 0 0 0 0 0 0 0 0 0 0 0 0 0 0 0 0 0 0 0 0 0 0 0 0
2 77 100 100 100 100 3 0 0 0 0 0 0 0 0 0 0 0 0 0 0 0 0 11 0 0 0 0 0 0 0 0 0
0 81 99 98 93 71 29 2 0 0 0 0 0 0 0 0 0 0 0 0 0 0 0 0 0 0 0 0 0 0 0 0 0
0 100 100 100 100 100 15 1 46 68 0 0 0 0 0 0 0 0 0 0 0 0 0 0 0 0 0 0 0 0 0 0 0
0 52 100 100 100 84 70 11 47 100 0 0 0 0 0 0 0 0 0 0 0 0 0 0 0 0 0 0 0 0 0 0 0
0 2 87 100 100 100 100 92 94 55 1 0 4 2 0 0 0 0 0 0 0 0 0 0 0 0 0 0 0 0 0 0 0
0 0 73 100 100 100 99 100 99 100 99 5 32 5 0 0 0 0 0 0 0 0 0 0 0 0 0 0 0 0 0 0 0
0 0 100 100 100 100 100 94 58 100 100 51 5 5 2 0 0 0 0 0 0 0 0 0 0 0 0 0 0 0 0 0 0
5 3 100 100 100 100 99 92 98 100 98 100 100 100 100 50 0 0 0 0 0 0 0 0 0 0 0 0 0 0 0 2 0
86 26 100 100 100 100 100 100 99 47 34 100 98 100 100 100 84 0 0 0 0 0 0 0 0 0 0 0 0 0 0 0 0
100 96 98 100 100 100 100 99 100 98 100 100 100 100 100 55 100 0 4 37 0 0 0 0 0 0 0 0 0 0 0 0 0
100 100 95 87 100 98 100 100 100 100 100 100 100 100 100 100 100 100 5 94 100 0 0 0 0 0 0 0 0 0 0 8 0
100 100 100 62 78 35 100 100 100 100 100 100 100 100 100 100 100 100 96 100 100 88 0 0 0 0 0 0 0 0 0 8 0
72 100 100 99 98 24 99 100 100 100 100 100 100 100 100 100 100 100 100 100 100 97 0 0 0 0 0 0 0 1 10 16 46
0 39 100 100 100 98 81 100 100 100 100 58 100 100 100 100 100 100 100 100 100 100 9 0 0 0 0 0 0 0 54 28 26
0 0 2 99 100 100 99 99 100 100 76 100 100 100 100 100 100 100 100 100 81 53 1 0 0 0 0 0 0 0 0 5 47
58 51 0 3 23 68 96 92 97 72 91 100 100 100 100 100 100 100 100 100 100 27 3 0 0 0 3 1 0 0 0 0 0
23 0 4 29 10 100 48 99 100 32 100 100 100 100 100 98 97 100 100 100 100 100 86 54 10 2 0 0 2 0 11 86 100
100 48 28 40 61 19 100 71 100 100 100 100 100 100 100 100 100 100 100 99 70 100 100 100 100 100 80 7 8 100 79 54 100

GFSFLT1_prec_cloud_063.txt.gz
Cloud_Cover
7 100 98 94 5 4 5 4 0 0 0 0 0 0 0 0 0 0 0 0 0 0 0 1 5 0 0 0 0 0 0 0 0
21 97 100 93 8 6 5 8 0 0 0 0 0 0 0 0 0 0 0 0 0 0 0 0 0 0 0 0 0 0 0 0 0
4 51 58 93 47 20 5 8 1 0 0 0 0 0 0 0 0 0 0 0 0 0 0 4 0 0 0 0 0 0 0 0 0
0 0 74 100 96 4 23 5 0 0 0 0 0 0 0 0 0 0 0 0 0 0 0 8 48 0 0 0 0 0 0 0 0
0 0 1 100 100 100 100 59 4 1 0 0 0 0 0 0 0 0 0 0 0 0 0 0 0 0 0 0 0 0 0 0 0
1 0 0 6 100 100 100 100 10 0 0 0 0 0 0 0 0 0 0 0 0 0 0 0 0 0 0 0 0 0 0 0 0
9 78 97 58 68 100 100 100 98 30 1 0 0 0 0 0 0 0 0 0 0 0 0 0 0 0 0 0 0 0 0 0 0
0 49 100 100 100 100 100 97 100 94 0 0 0 0 0 0 0 0 0 0 0 0 0 0 0 0 0 0 0 0 0 0 0
0 0 92 100 100 100 100 100 100 86 0 6 0 0 0 0 0 0 0 0 0 0 0 0 0 0 0 0 0 0 0 0 0
0 0 0 91 100 100 100 95 93 25 46 100 95 0 3 0 0 0 0 0 0 0 0 0 0 0 0 0 0 0 0 0 0
0 4 0 10 99 100 100 100 100 53 12 100 100 94 3 0 0 0 0 0 0 0 0 0 0 0 0 0 0 0 0 0 0
0 3 3 0 71 100 100 100 100 73 64 87 100 100 79 38 5 4 0 0 0 0 0 0 0 0 0 0 0 0 0 0 0
0 10 27 5 12 100 95 92 100 100 91 100 27 59 47 72 82 56 62 1 0 0 0 0 0 0 0 0 0 0 7 18 0
0 26 98 54 73 76 87 100 86 97 100 100 100 86 87 99 100 60 97 40 16 100 100 14 0 0 0 0 0 0 0 7 0
0 0 14 99 63 99 100 100 74 35 100 100 100 100 88 85 97 90 100 100 100 100 100 100 29 0 0 0 0 0 18 14 36
37 0 2 6 100 100 100 100 100 78 99 100 100 100 78 100 99 99 99 64 90 100 100 100 100 96 5 0 0 0 55 13 28
100 100 60 6 48 94 100 100 100 94 61 100 88 100 100 100 100 100 90 70 100 100 97 100 100 23 93 25 0 0 0 28 65
100 100 80 13 0 0 80 100 100 100 13 100 100 68 100 100 100 100 100 59 95 98 72 77 100 69 99 100 0 0 0 0 2
99 96 100 100 55 0 0 66 100 100 100 100 90 65 98 100 100 100 100 100 73 100 100 86 100 99 100 100 5 4 18 70 100
69 92 100 100 100 42 56 34 58 99 73 100 100 73 50 100 100 100 99 100 100 98 100 100 100 100 100 100 7 100 98 100 100

GFSFLT1_prec_cloud_069.txt.gz
Cloud_Cover
21 36 1 21 0 5 5 69 56 5 0 0 0 6 0 0 0 0 0 0 0 0 0 0 0 0 0 0 0 0 0 0 0
4 5 5 22 60 62 59 89 49 5 2 2 0 0 0 0 0 0 0 0 0 0 0 0 0 0 0 0 0 0 0 0 0
0 5 100 43 87 76 89 100 58 84 15 0 0 1 0 0 0 0 0 0 0 0 0 0 0 0 0 0 2 5 5 0 0
88 56 33 100 100 98 74 100 98 11 3 14 34 14 4 0 0 0 0 0 0 0 0 0 0 0 0 0 0 0 0 0 0
100 100 100 100 83 87 78 92 93 88 25 66 100 99 99 58 58 0 0 0 0 0 0 0 0 0 0 0 1 0 0 4 0
100 100 89 85 88 100 98 100 100 100 70 36 73 100 100 100 97 17 0 0 0 0 0 0 0 0 0 0 0 0 0 0 2
100 100 100 100 100 97 100 100 100 82 98 100 100 98 90 90 94 94 88 7 0 0 0 0 0 0 0 0 0 0 0 0 0
87 100 100 100 100 100 100 100 100 82 100 99 100 100 80 2 0 23 100 98 23 0 0 0 0 0 0 0 0 0 0 0 0
0 0 92 100 100 100 100 100 100 100 100 100 100 100 100 1 0 0 0 5 98 97 2 0 0 0 0 0 0 0 0 0 0
0 0 0 27 100 100 100 100 100 100 99 100 100 100 100 100 23 3 0 0 0 0 3 0 0 0 0 0 0 0 0 0 0
0 0 0 0 5 35 100 100 100 93 96 94 100 100 100 100 100 43 26 28 5 0 0 0 0 0 0 0 0 0 0 0 0
0 0 0 0 0 0 1 68 100 100 100 100 95 100 100 100 100 98 18 50 18 3 1 0 0 0 0 0 0 0 0 5 0
0 0 0 0 0 0 0 0 20 74 100 100 99 100 100 100 100 100 100 56 29 50 68 28 3 0 0 0 0 0 0 9 0
0 0 0 0 0 0 0 0 0 32 100 100 100 93 100 100 100 100 100 24 86 91 84 73 54 34 2 0 0 0 0 0 0
0 0 0 0 0 0 0 0 0 0 1 82 100 100 93 100 100 99 100 100 12 53 64 70 63 73 69 20 10 0 0 0 53
4 44 31 44 29 10 0 1 6 0 2 5 46 100 100 99 100 96 100 100 38 6 42 98 70 89 99 41 13 9 8 0 0
58 99 100 100 100 67 41 2 17 1 0 38 24 25 98 100 84 99 99 100 52 57 8 30 100 85 68 56 39 23 13 0 2
100 90 100 100 100 100 78 95 25 17 0 4 42 10 89 37 100 99 92 100 98 65 76 32 13 31 62 39 15 6 0 0 0
15 46 100 100 100 100 81 79 99 13 11 45 98 63 7 100 78 100 73 100 92 100 99 98 93 94 53 5 5 6 40 95 95
100 99 68 100 100 100 81 100 100 97 58 94 68 100 85 92 100 100 100 73 100 99 100 100 100 100 100 100 10 99 100 100 100

GFSFLT1_prec_cloud_072.txt.gz
Cloud_Cover
5 36 33 50 51 62 86 4 5 42 2 0 0 0 0 0 0 0 0 1 33 41 100 51 4 1 4 0 0 0 0 0 0
63 100 59 66 73 48 61 12 5 14 5 4 0 6 0 0 0 0 0 11 1 0 0 82 0 0 0 0 5 1 0 20 0
94 100 89 100 98 90 76 37 44 74 38 73 2 38 13 4 0 0 0 0 1 0 3 2 22 0 8 5 5 5 0 0 0
100 76 93 87 100 91 100 100 72 100 100 85 94 5 14 10 0 0 0 0 0 0 0 0 0 0 4 1 4 0 0 6 5
100 100 100 98 100 99 100 100 100 100 100 100 100 5 0 5 41 26 0 0 0 0 0 0 0 0 0 0 0 0 1 5 5
100 100 100 97 100 100 98 94 100 100 100 93 98 100 75 54 21 91 5 0 0 0 0 0 0 0 1 0 5 9 0 0 5
100 100 100 100 100 100 100 100 100 100 96 100 100 80 11 3 86 0 25 0 1 0 0 0 0 0 0 0 0 7 10 5 0
100 100 100 100 100 100 100 100 95 99 100 100 99 75 100 82 2 13 0 0 0 3 0 0 0 0 0 0 0 0 0 0 0
1 98 100 100 100 100 100 100 100 100 100 100 100 100 100 100 100 95 28 11 0 0 8 7 0 0 0 0 0 0 0 0 0
0 0 0 52 100 100 89 99 90 100 100 99 100 100 100 100 100 100 100 81 53 4 0 0 0 0 0 0 0 0 0 0 0
0 0 0 0 0 91 100 100 99 40 36 71 100 100 100 99 92 100 84 100 100 93 57 25 2 0 0 0 0 0 0 0 0
0 0 0 0 0 0 1 55 98 100 100 99 95 100 98 100 100 100 100 100 70 32 100 99 49 19 3 0 0 0 0 3 0
0 0 0 0 0 0 0 0 0 69 98 74 100 100 100 100 100 100 100 100 100 100 75 6 53 87 39 28 0 0 0 6 0
0 0 0 0 0 0 0 0 0 0 0 1 46 73 92 97 100 100 100 99 100 100 98 10 22 11 97 83 7 2 0 0 0
2 0 0 0 0 0 0 0 0 0 0 0 22 97 99 36 100 95 100 100 100 81 100 100 15 6 34 74 45 3 1 0 71
0 0 0 0 0 0 0 0 0 0 0 0 0 0 43 97 96 100 100 43 98 99 89 65 11 5 4 56 100 41 1 0 0
5 5 6 8 24 7 9 24 19 8 11 15 3 0 1 2 0 97 9 100 93 61 46 98 68 27 92 5 66 42 78 50 6
5 16 81 98 92 96 45 38 96 100 16 11 5 0 0 0 0 6 94 69 100 98 42 47 100 81 83 17 7 33 94 100 100
25 8 73 100 100 98 70 53 44 95 99 67 30 30 0 0 0 0 0 1 8 74 99 20 100 56 50 10 32 33 93 93 97
3 26 85 100 74 65 100 83 77 100 100 97 100 100 96 23 27 0 0 0 1 9 37 75 100 100 100 100 46 79 100 100 100

GFSFLT1_prec_cloud_075.txt.gz
Cloud_Cover
88 100 98 23 32 99 20 100 43 0 0 3 0 0 0 6 0 0 1 6 80 69 78 100 2 7 8 1 42 0 2 0 0
50 97 100 76 46 100 71 100 73 1 0 0 0 0 1 2 5 0 12 77 6 78 100 66 13 4 53 21 74 28 4 28 1
24 28 46 100 98 100 79 66 100 24 0 2 5 3 0 1 3 8 0 0 0 30 98 10 99 2 28 88 53 28 2 43 5
5 87 59 57 75 97 90 100 100 100 46 5 5 4 1 1 4 2 9 0 0 0 0 0 1 28 98 95 40 10 8 9 56
80 100 94 100 69 80 100 100 100 100 80 38 62 18 24 8 41 11 26 4 0 0 0 0 0 0 4 38 71 68 8 24 17
56 84 98 100 100 100 100 100 100 100 78 100 96 61 54 8 16 5 6 20 4 0 0 0 0 1 0 24 100 100 65 25 4
99 100 63 99 92 98 100 100 97 100 66 52 70 100 84 24 11 2 54 62 27 18 0 0 0 0 16 6 19 87 100 100 99
100 95 100 84 69 99 100 100 96 100 97 75 76 100 100 80 62 13 44 25 29 3 22 0 0 0 0 1 0 0 5 10 7
94 89 100 98 100 63 100 100 100 100 100 100 100 100 86 98 9 92 76 86 36 52 25 0 0 0 0 0 0 0 2 5 5
0 82 96 68 60 57 100 98 98 100 100 98 77 100 100 96 74 100 100 100 74 99 36 52 4 0 0 0 0 0 0 0 0
0 0 0 16 20 100 97 67 27 19 4 58 100 100 100 100 100 93 96 100 100 100 87 28 10 14 0 0 0 0 0 0 0
0 0 0 0 0 0 3 91 100 99 85 40 42 99 95 100 100 100 100 95 100 99 14 61 95 53 2 1 0 0 0 0 0
0 0 0 0 0 0 0 0 0 8 68 66 100 97 40 50 86 100 100 100 100 100 96 100 74 16 14 0 0 0 0 1 0
0 0 0 0 0 0 0 0 0 0 0 0 60 55 7 28 91 86 84 99 100 98 95 100 100 59 0 0 0 0 0 0 1
0 0 0 0 0 0 0 0 0 0 0 0 0 0 0 0 0 12 7 74 100 87 94 99 100 100 100 22 4 0 0 0 73
0 0 0 0 0 0 0 0 0 0 0 7 1 0 0 0 0 0 0 3 81 100 92 72 100 100 100 100 77 33 4 22 0
5 5 4 4 2 1 0 8 0 0 0 0 0 0 0 0 0 0 0 0 5 76 100 100 61 78 49 100 100 100 35 77 14
5 3 4 1 2 2 3 14 20 16 8 1 0 0 0 0 0 0 0 0 0 4 90 100 80 100 98 58 100 100 79 96 87
4 13 2 1 1 1 5 11 20 25 62 74 62 3 0 0 0 0 0 0 0 0 1 81 100 100 100 92 78 43 92 100 100
12 52 20 5 8 3 7 17 20 33 95 100 90 77 85 31 3 0 0 0 0 0 0 1 35 100 100 100 100 93 100 99 100

GFSFLT1_prec_cloud_078.txt.gz
Cloud_Cover
71 99 100 88 100 54 92 55 100 1 0 0 0 0 0 0 0 0 8 100 98 83 98 76 90 8 0 0 4 0 0 0 0
16 74 100 55 100 95 96 100 10 15 0 0 0 0 0 0 0 0 0 9 24 0 90 58 59 34 100 25 53 1 0 3 4
49 100 85 100 100 100 84 100 100 49 0 0 0 0 0 0 0 0 0 0 0 9 74 98 100 100 100 100 100 63 0 2 87
65 82 100 100 100 100 100 100 100 97 54 4 0 0 0 0 0 0 0 0 0 0 0 1 99 100 100 100 97 0 0 83 83
99 99 93 100 100 100 100 100 100 100 100 66 4 2 1 5 0 0 0 0 0 0 0 0 19 100 100 100 46 24 4 14 20
92 100 100 100 100 100 100 100 100 100 66 97 100 99 13 6 0 0 0 0 0 0 0 0 0 0 2 13 4 3 95 100 13
60 53 93 100 100 100 100 100 100 100 100 100 100 100 100 87 19 74 29 0 0 0 0 0 0 0 0 0 0 0 61 100 100
59 24 58 96 100 90 93 100 100 100 76 100 100 100 100 84 100 100 100 7 0 0 0 0 0 0 0 0 0 0 0 12 71
0 0 48 31 11 28 73 83 99 100 100 100 100 100 100 7 100 100 100 100 10 6 0 0 2 2 0 0 0 0 0 0 0
0 0 12 2 0 9 59 51 67 93 100 100 100 100 100 100 66 99 100 100 100 86 0 0 0 28 0 0 0 0 0 0 0
0 0 0 0 0 0 0 5 94 100 100 100 100 100 100 100 100 100 100 100 96 12 92 41 6 5 0 2 0 0 0 0 0
0 0 0 0 0 0 0 15 4 45 70 100 100 100 100 100 100 100 100 98 56 18 80 95 100 6 55 0 0 0 0 0 0
0 0 0 0 0 0 0 0 0 28 8 40 95 5 44 7 8 85 100 100 97 100 95 98 100 100 75 2 0 0 0 0 0
0 0 0 0 0 0 0 0 0 0 0 0 1 70 6 3 5 7 100 96 49 45 85 99 98 98 100 9 5 0 1 0 0
0 0 0 0 0 0 0 0 0 0 0 0 0 1 1 0 2 56 5 97 67 89 51 96 100 100 95 100 100 60 2 0 72
2 0 0 0 0 0 0 0 0 0 0 0 0 0 0 0 0 0 1 24 100 90 92 28 80 100 93 100 100 100 100 94 63
34 52 24 3 0 0 0 0 0 0 0 0 0 0 0 0 0 0 0 0 2 16 5 46 89 71 58 75 100 100 99 63 100
100 100 100 100 29 1 2 16 0 4 0 0 0 0 0 0 0 0 0 0 0 0 0 0 13 58 86 99 100 59 68 62 100
100 100 100 100 81 6 16 21 18 13 18 4 13 0 0 0 0 0 0 0 0 0 0 0 0 1 1 38 100 87 41 34 100
100 19 64 6 31 55 11 22 33 31 13 69 62 74 16 1 0 0 0 0 0 0 0 0 0 0 0 0 8 100 86 27 100

GFSFLT1_prec_cloud_081.txt.gz
Cloud_Cover
100 100 100 95 42 93 93 72 99 1 0 0 0 0 0 0 0 0 0 38 99 5 81 27 17 100 97 99 100 76 1 0 0
100 95 7 57 66 100 100 100 97 100 13 81 8 0 0 0 0 0 0 0 5 4 18 39 89 100 100 100 100 91 57 0 0
100 100 100 100 100 45 64 97 99 77 93 9 78 0 0 0 0 0 0 0 0 0 0 0 59 100 100 100 100 52 94 9 2
100 100 100 100 100 100 100 100 100 100 100 100 100 100 7 2 0 0 0 0 0 0 0 22 38 63 100 100 100 97 86 100 1
100 100 100 100 100 100 100 100 100 100 100 100 100 100 100 77 93 5 3 0 0 0 0 0 0 11 100 100 100 100 100 81 2
100 100 100 92 100 100 100 100 100 100 100 100 100 100 100 100 96 32 100 85 46 100 100 0 0 0 0 9 63 80 16 3 3
100 100 100 100 51 100 100 100 100 100 100 100 100 100 100 100 100 100 100 100 100 100 100 71 60 0 0 0 0 0 0 14 88
100 100 100 100 100 66 100 94 100 100 100 100 100 100 100 94 100 100 100 100 100 100 100 100 100 33 0 0 0 0 0 0 4
100 81 100 100 100 100 100 97 100 100 100 100 100 100 100 100 100 100 100 100 100 100 100 100 100 100 4 0 0 0 0 0 0
28 52 51 95 100 100 77 10 60 100 100 100 100 100 100 100 100 100 100 100 100 100 100 100 100 100 100 22 1 5 26 0 0
3 5 2 0 16 56 46 35 10 37 100 100 100 100 100 100 100 100 100 100 100 100 100 100 100 60 99 3 0 0 5 28 0
0 0 1 0 0 0 0 0 0 0 100 100 100 100 100 100 100 100 100 100 100 100 100 100 100 59 8 78 82 2 5 75 56
0 0 1 0 0 0 0 0 0 0 2 96 100 100 100 100 100 100 100 100 100 100 100 100 100 96 18 14 98 92 77 40 22
0 0 0 0 0 0 0 0 0 0 0 0 54 94 100 100 100 100 97 100 100 100 95 100 100 80 100 100 100 71 73 100 16
0 0 0 0 0 0 0 0 0 0 0 0 12 100 98 100 100 100 100 100 100 100 100 100 100 100 100 100 98 51 42 14 99
2 0 0 0 0 0 0 0 0 0 0 0 0 45 97 100 100 100 100 100 100 100 100 100 100 100 100 100 68 12 32 82 100
4 5 0 0 0 0 0 0 0 0 0 0 0 0 1 29 100 100 100 100 100 100 100 94 98 100 100 100 100 100 97 76 10
2 4 7 9 1 0 0 0 0 0 0 0 0 0 0 0 20 64 34 60 54 76 94 5 89 100 100 100 100 97 83 87 28
48 6 2 19 51 35 9 0 0 0 0 0 0 0 0 0 0 0 0 0 0 0 3 100 100 100 88 100 100 100 83 59 17
100 100 99 88 90 84 16 20 5 5 1 0 0 0 0 0 0 0 0 0 0 0 0 5 83 0 6 18 100 100 98 58 5

GFSFLT1_prec_cloud_084.txt.gz
Cloud_Cover
100 100 88 100 34 95 100 49 1 3 6 5 5 4 0 0 0 0 32 5 39 98 30 4 12 64 98 100 79 67 96 100 100
100 89 95 100 99 91 83 67 81 90 93 91 99 1 5 6 0 0 0 1 5 62 60 7 0 93 100 98 100 50 35 98 100
100 100 100 96 98 94 93 98 83 85 96 57 80 42 99 53 5 3 5 0 3 5 2 82 24 50 100 100 100 100 100 63 39
100 100 100 100 100 100 100 100 100 100 100 100 100 100 100 93 35 100 100 10 2 0 2 62 100 55 97 100 96 100 100 96 43
100 100 100 100 100 100 100 100 100 100 100 100 96 100 100 100 99 100 100 100 100 100 100 100 100 21 5 20 86 100 100 100 53
100 100 100 100 100 100 100 100 100 98 99 100 100 100 100 100 100 100 100 100 100 100 100 100 100 100 100 84 38 38 47 6 10
100 100 100 100 100 100 100 100 100 100 100 100 100 100 100 100 100 100 100 100 100 100 100 100 100 100 100 100 99 16 0 2 1
98 100 100 100 100 92 100 100 100 100 100 100 100 100 100 100 100 100 100 100 100 100 100 100 100 100 100 100 100 100 92 88 5
85 100 100 100 100 100 100 100 100 100 100 100 100 100 100 100 100 100 100 100 100 100 100 100 100 100 100 100 100 100 100 100 82
99 100 98 100 100 100 100 100 100 100 100 100 100 100 100 100 100 100 100 100 100 100 100 100 100 100 100 100 100 100 78 5 5
74 33 90 100 100 100 100 100 100 100 100 100 100 100 100 100 100 100 100 100 100 100 100 100 100 100 100 100 99 91 99 42 5
5 3 7 45 10 100 100 100 100 100 100 100 100 100 100 100 100 100 100 100 100 100 100 100 100 100 100 100 100 60 58 36 30
2 0 0 3 5 0 76 100 100 100 100 100 100 100 100 100 100 100 100 100 100 100 100 100 100 100 100 100 100 100 63 62 28
5 5 5 5 5 1 0 0 0 0 1 34 9 100 100 100 100 100 100 100 100 100 100 100 100 100 100 100 100 99 99 95 43
81 35 5 5 5 5 5 0 0 0 0 0 0 0 39 100 100 100 100 100 100 100 100 100 100 100 100 100 100 97 90 75 97
0 0 20 92 31 5 2 0 0 0 0 0 0 0 0 0 77 100 100 100 100 100 100 100 100 100 100 100 100 100 100 100 100
7 5 0 0 0 0 0 0 0 0 0 0 0 0 0 0 0 0 12 100 100 100 100 100 100 100 100 100 100 100 100 100 99
38 5 5 1 0 0 0 0 0 0 0 0 0 0 0 0 0 0 0 4 94 100 100 100 100 100 100 100 100 100 100 100 99
88 100 78 64 11 5 3 0 0 0 0 0 0 0 0 0 0 0 0 0 0 1 19 99 100 100 100 100 100 100 100 100 77
5 5 91 81 26 5 5 4 0 0 5 5 0 0 0 0 0 0 0 0 0 0 0 19 92 100 100 100 100 100 94 37 89

GFSFLT1_prec_cloud_087.txt.gz
Cloud_Cover
100 94 59 99 87 97 100 100 100 18 8 27 5 5 14 1 6 3 5 3 5 5 30 37 0 55 66 95 35 23 100 100 62
100 99 90 100 100 100 100 93 98 32 80 85 97 92 4 1 14 5 2 5 3 5 8 7 5 5 83 38 36 61 100 100 99
100 100 100 100 60 100 91 91 98 92 100 99 64 4 9 5 24 7 37 6 4 5 66 100 27 5 90 91 5 41 100 100 100
100 100 100 100 100 100 100 100 100 100 100 100 99 67 100 78 43 5 93 100 78 11 99 93 100 76 100 83 5 4 96 99 100
100 100 100 100 100 100 100 100 100 100 100 100 100 100 82 100 100 99 100 100 100 100 100 100 100 100 100 100 85 64 100 100 69
91 100 100 100 100 100 100 100 100 100 100 100 100 100 100 100 87 100 100 96 100 100 100 100 100 100 100 100 100 100 100 100 100
61 100 100 100 100 100 100 100 100 100 100 100 100 100 100 100 70 100 97 92 100 100 100 100 100 100 100 100 100 100 100 100 100
95 72 100 100 100 100 100 100 100 100 100 100 100 100 100 100 100 100 93 98 96 85 100 100 100 100 100 100 100 100 100 100 100
79 100 98 94 100 100 100 100 100 100 100 100 100 100 100 100 100 100 91 96 56 87 100 54 57 55 100 100 100 100 100 100 100
95 87 97 98 100 100 100 100 100 100 100 100 100 100 100 100 100 100 100 100 100 100 79 93 100 100 100 100 100 100 100 100 100
57 100 100 100 100 100 100 100 100 100 100 100 100 100 100 100 100 100 100 100 100 100 100 94 54 93 100 100 100 100 100 100 100
96 97 100 100 100 100 100 100 100 99 100 100 100 100 100 100 100 100 100 100 100 100 100 100 100 100 100 100 100 100 100 100 100
51 96 100 100 100 96 100 100 78 49 44 83 97 100 100 100 100 100 100 100 100 100 100 100 100 100 100 100 100 100 100 100 100
10 5 31 18 6 5 90 36 92 80 5 23 100 100 100 100 100 100 100 100 100 100 100 100 100 100 100 100 100 100 100 100 100
91 100 90 42 5 5 5 5 5 2 97 5 64 100 100 100 100 100 100 100 100 100 100 100 96 100 100 100 100 100 100 100 100
42 37 100 9 6 5 5 5 5 5 4 3 5 5 98 100 100 100 100 100 100 100 100 100 100 100 100 100 100 100 100 100 100
99 67 48 45 61 5 5 12 35 5 5 4 3 86 47 97 100 100 100 100 100 100 100 100 100 100 100 100 100 100 100 100 100
100 100 90 11 2 0 0 0 0 1 5 3 1 0 72 100 100 100 100 100 100 100 100 100 100 100 100 100 100 100 100 100 100
100 100 99 87 42 5 1 0 0 0 0 0 0 0 0 5 98 100 100 100 100 100 100 100 100 100 100 100 100 100 100 100 100
86 61 14 17 6 8 5 5 5 0 0 0 0 0 0 0 0 1 64 74 28 4 0 3 37 100 100 100 100 100 100 100 100

GFSFLT1_prec_cloud_093.txt.gz
Cloud_Cover
100 93 26 99 100 97 99 100 99 100 62 11 6 0 1 4 1 7 2 5 5 5 65 4 0 5 7 14 55 100 12 5 44
98 89 100 100 100 100 100 100 100 74 100 65 99 13 5 2 0 5 7 0 1 5 31 42 4 10 57 14 14 83 100 11 5
100 100 100 100 100 100 100 100 100 100 100 72 100 92 48 37 5 3 5 4 0 2 5 41 81 100 48 21 6 71 43 90 24
100 100 100 100 100 100 100 100 100 100 100 96 53 100 100 83 20 34 29 18 5 100 54 98 55 100 98 100 100 100 99 84 84
100 100 100 100 100 100 100 100 100 100 100 100 98 95 100 100 100 57 14 88 100 94 67 8 100 96 98 96 75 100 100 100 30
100 100 100 100 100 100 100 100 100 100 100 100 65 100 100 100 100 100 99 82 68 79 64 14 5 92 100 100 59 100 100 100 100
100 100 100 100 100 100 100 100 99 99 100 100 100 100 100 100 100 100 100 100 96 58 75 40 5 19 100 72 90 100 100 100 100
100 100 100 100 100 100 100 100 100 100 100 100 100 100 100 100 100 100 91 96 57 100 83 47 5 19 100 100 9 96 100 92 100
100 100 100 100 100 100 100 100 100 100 100 100 100 100 100 100 100 100 100 100 100 100 84 51 15 46 86 92 70 98 92 100 100
100 100 98 100 100 100 100 100 100 100 100 100 100 100 100 100 100 100 94 100 100 100 86 23 56 5 87 82 38 22 100 100 54
17 25 70 100 100 100 100 100 100 100 100 100 100 100 100 100 100 100 100 100 100 100 98 99 99 60 100 100 63 35 81 99 43
0 0 0 2 68 100 100 100 100 100 100 100 100 100 100 100 100 100 100 79 80 100 100 96 72 85 99 100 99 89 84 23 55
0 0 23 36 100 100 100 100 100 100 100 100 100 100 100 100 100 100 100 100 100 100 100 84 99 100 95 93 69 99 100 99 59
3 8 99 100 100 100 100 100 98 100 100 100 100 100 100 100 100 100 100 100 100 100 100 100 94 87 84 100 94 96 99 100 99
5 42 94 96 100 95 72 98 100 100 100 100 95 87 100 100 100 100 100 100 100 100 100 100 100 100 100 97 93 92 91 100 100
7 9 8 5 5 0 2 4 90 94 67 33 14 55 25 5 48 100 100 100 100 100 100 100 100 100 100 100 100 100 85 88 100
27 55 5 5 5 5 5 5 13 96 89 5 0 0 0 2 8 37 95 95 100 100 100 100 100 100 100 100 100 100 100 100 100
67 30 54 9 15 41 50 36 68 98 100 68 2 0 2 1 0 2 12 80 98 91 100 99 100 100 100 100 100 100 100 100 100
100 100 91 87 85 63 30 93 82 83 51 9 5 3 0 4 5 5 1 5 10 53 84 100 100 100 100 100 100 100 100 100 100
5 96 100 100 100 97 75 92 99 95 18 54 100 99 84 99 100 5 5 5 5 5 6 59 89 100 96 100 100 75 61 100 100